When you browse on this site, cookies collect data to enhance your experience and personalize the content and advertising you see.
Visit our Privacy Policy to learn more. By continuing to use the site, you agree to this use of cookies and data.
  • In Italy
  • List of Countries
  • For 7 days
  • Water Temperature
  • Satellite Maps
  • Weather Map
  • Weather Widgets
  • user-avatar
    Login

    Hourly Weather Rome

    Today, 19 March, Tuesday

    Time Temperature Precipitation Wind Pressure Humidity
    00:00 +10°C° 0 mm 2 mps 759 mmHg 77%
    01:00 +9°C° 0 mm 2 mps 759 mmHg 77%
    02:00 +9°C° 0.1 mm 2 mps 759 mmHg 76%
    03:00 +9°C° 0.1 mm 2 mps 759 mmHg 75%
    04:00 +9°C° 0.1 mm 2 mps 759 mmHg 74%
    05:00 +9°C° 0.1 mm 2 mps 759 mmHg 73%
    06:00 +8°C° 0.1 mm 2 mps 759 mmHg 71%
    07:00 +9°C° 0 mm 2 mps 759 mmHg 69%
    08:00 +10°C° 0.1 mm 2 mps 759 mmHg 65%
    09:00 +13°C° 0.1 mm 2 mps 760 mmHg 60%
    10:00 +14°C° 0.1 mm 1 mps 760 mmHg 56%
    11:00 +15°C° 0 mm 1 mps 760 mmHg 52%
    12:00 +16°C° 0 mm 1 mps 760 mmHg 48%
    13:00 +18°C° 0 mm 1 mps 760 mmHg 44%
    14:00 +18°C° 0 mm 1 mps 760 mmHg 46%
    15:00 +18°C° 0 mm 1 mps 760 mmHg 47%
    16:00 +17°C° 0 mm 2 mps 760 mmHg 49%
    17:00 +15°C° 0 mm 2 mps 760 mmHg 53%
    18:00 +14°C° 0 mm 1 mps 760 mmHg 58%
    19:00 +13°C° 0 mm 1 mps 761 mmHg 62%
    20:00 +12°C° 0 mm 2 mps 761 mmHg 63%
    21:00 +12°C° 0 mm 2 mps 762 mmHg 64%
    22:00 +10°C° 0 mm 3 mps 762 mmHg 64%
    23:00 +10°C° 0 mm 3 mps 762 mmHg 65%

    Tomorrow, 20 March, Wednesday

    Time Temperature Precipitation Wind Pressure Humidity
    00:00 +10°C° 0 mm 3 mps 762 mmHg 65%
    01:00 +9°C° 0 mm 3 mps 763 mmHg 66%
    02:00 +9°C° 0 mm 3 mps 763 mmHg 66%
    03:00 +9°C° 0 mm 3 mps 762 mmHg 66%
    04:00 +8°C° 0 mm 2 mps 762 mmHg 66%
    05:00 +8°C° 0 mm 3 mps 763 mmHg 65%
    06:00 +8°C° 0 mm 3 mps 763 mmHg 65%
    07:00 +8°C° 0 mm 3 mps 763 mmHg 64%
    08:00 +12°C° 0 mm 2 mps 763 mmHg 59%
    09:00 +14°C° 0 mm 2 mps 764 mmHg 53%
    10:00 +16°C° 0 mm 2 mps 764 mmHg 48%
    11:00 +16°C° 0 mm 2 mps 764 mmHg 47%
    12:00 +18°C° 0 mm 1 mps 764 mmHg 45%
    13:00 +19°C° 0 mm 1 mps 764 mmHg 44%
    14:00 +19°C° 0 mm 1 mps 764 mmHg 46%
    15:00 +18°C° 0 mm 1 mps 764 mmHg 47%
    16:00 +18°C° 0 mm 1 mps 764 mmHg 49%
    17:00 +16°C° 0 mm 2 mps 765 mmHg 52%
    18:00 +15°C° 0 mm 2 mps 765 mmHg 55%
    19:00 +14°C° 0 mm 2 mps 765 mmHg 58%
    20:00 +14°C° 0 mm 2 mps 765 mmHg 58%
    21:00 +12°C° 0 mm 3 mps 766 mmHg 59%
    22:00 +11°C° 0 mm 3 mps 766 mmHg 60%
    23:00 +11°C° 0 mm 3 mps 766 mmHg 61%

    Day after tomorrow, 21 March, Thursday

    Time Temperature Precipitation Wind Pressure Humidity
    00:00 +10°C° 0 mm 3 mps 766 mmHg 62%
    01:00 +10°C° 0 mm 3 mps 766 mmHg 63%
    02:00 +9°C° 0 mm 3 mps 766 mmHg 63%
    03:00 +9°C° 0 mm 3 mps 766 mmHg 62%
    04:00 +9°C° 0 mm 3 mps 766 mmHg 61%
    05:00 +9°C° 0 mm 3 mps 766 mmHg 61%
    06:00 +9°C° 0 mm 3 mps 766 mmHg 61%
    07:00 +9°C° 0 mm 2 mps 766 mmHg 61%
    08:00 +13°C° 0 mm 2 mps 766 mmHg 55%
    09:00 +15°C° 0 mm 2 mps 766 mmHg 50%
    10:00 +17°C° 0 mm 2 mps 766 mmHg 45%
    11:00 +19°C° 0 mm 2 mps 766 mmHg 41%
    12:00 +22°C° 0 mm 1 mps 766 mmHg 38%
    13:00 +24°C° 0 mm 1 mps 766 mmHg 34%
    14:00 +24°C° 0 mm 1 mps 766 mmHg 35%
    15:00 +24°C° 0 mm 1 mps 765 mmHg 36%
    16:00 +24°C° 0 mm 2 mps 765 mmHg 36%
    17:00 +21°C° 0 mm 2 mps 765 mmHg 42%
    18:00 +19°C° 0 mm 2 mps 766 mmHg 47%
    19:00 +18°C° 0 mm 2 mps 766 mmHg 52%
    20:00 +17°C° 0 mm 2 mps 766 mmHg 54%
    21:00 +16°C° 0 mm 2 mps 767 mmHg 56%
    22:00 +15°C° 0 mm 2 mps 767 mmHg 58%
    23:00 +14°C° 0 mm 2 mps 767 mmHg 60%

    22 March, Friday

    Time Temperature Precipitation Wind Pressure Humidity
    00:00 +13°C° 0 mm 2 mps 767 mmHg 61%
    01:00 +13°C° 0 mm 2 mps 767 mmHg 62%
    02:00 +12°C° 0 mm 2 mps 767 mmHg 61%
    03:00 +12°C° 0 mm 2 mps 767 mmHg 59%
    04:00 +12°C° 0 mm 2 mps 767 mmHg 58%
    05:00 +10°C° 0 mm 2 mps 767 mmHg 58%
    06:00 +10°C° 0 mm 2 mps 767 mmHg 57%
    07:00 +10°C° 0 mm 2 mps 767 mmHg 56%
    08:00 +14°C° 0 mm 2 mps 767 mmHg 50%
    09:00 +16°C° 0 mm 1 mps 767 mmHg 44%
    10:00 +20°C° 0 mm 1 mps 767 mmHg 38%
    11:00 +21°C° 0 mm 1 mps 767 mmHg 36%
    12:00 +23°C° 0 mm 1 mps 767 mmHg 33%
    13:00 +24°C° 0 mm 1 mps 766 mmHg 31%
    14:00 +23°C° 0 mm 2 mps 766 mmHg 33%
    15:00 +23°C° 0 mm 2 mps 766 mmHg 36%
    16:00 +21°C° 0 mm 3 mps 766 mmHg 38%
    17:00 +20°C° 0 mm 3 mps 766 mmHg 45%
    18:00 +18°C° 0 mm 2 mps 766 mmHg 52%
    19:00 +16°C° 0 mm 2 mps 766 mmHg 58%
    20:00 +15°C° 0 mm 1 mps 766 mmHg 61%
    21:00 +15°C° 0 mm 1 mps 767 mmHg 63%
    22:00 +14°C° 0 mm 1 mps 767 mmHg 66%
    23:00 +14°C° 0 mm 1 mps 767 mmHg 67%

    23 March, Saturday

    Time Temperature Precipitation Wind Pressure Humidity
    00:00 +14°C° 0 mm 1 mps 767 mmHg 68%
    01:00 +13°C° 0 mm 1 mps 767 mmHg 70%
    02:00 +13°C° 0 mm 1 mps 766 mmHg 70%
    03:00 +13°C° 0 mm 1 mps 766 mmHg 70%
    04:00 +12°C° 0 mm 1 mps 766 mmHg 70%
    05:00 +12°C° 0 mm 1 mps 766 mmHg 69%
    06:00 +12°C° 0 mm 1 mps 766 mmHg 68%
    07:00 +12°C° 0 mm 1 mps 767 mmHg 67%
    08:00 +15°C° 0 mm 1 mps 766 mmHg 61%
    09:00 +18°C° 0 mm 1 mps 766 mmHg 55%
    10:00 +18°C° 0 mm 0 mps 766 mmHg 49%
    11:00 +21°C° 0 mm 1 mps 766 mmHg 48%
    12:00 +20°C° 0 mm 2 mps 766 mmHg 46%
    13:00 +21°C° 0 mm 2 mps 766 mmHg 45%
    14:00 +21°C° 0 mm 2 mps 765 mmHg 46%
    15:00 +20°C° 0 mm 2 mps 765 mmHg 48%
    16:00 +20°C° 0 mm 3 mps 765 mmHg 50%
    17:00 +18°C° 0 mm 2 mps 765 mmHg 55%
    18:00 +17°C° 0 mm 2 mps 765 mmHg 60%
    19:00 +15°C° 0 mm 1 mps 765 mmHg 65%
    20:00 +15°C° 0 mm 1 mps 765 mmHg 67%
    21:00 +15°C° 0 mm 1 mps 766 mmHg 68%
    22:00 +14°C° 0 mm 1 mps 766 mmHg 70%
    23:00 +14°C° 0 mm 1 mps 766 mmHg 71%

    24 March, Sunday

    Time Temperature Precipitation Wind Pressure Humidity
    00:00 +13°C° 0 mm 1 mps 766 mmHg 72%
    01:00 +13°C° 0 mm 1 mps 765 mmHg 73%
    02:00 +13°C° 0 mm 1 mps 765 mmHg 74%
    03:00 +13°C° 0 mm 1 mps 765 mmHg 75%
    04:00 +12°C° 0 mm 1 mps 765 mmHg 77%
    05:00 +12°C° 0 mm 1 mps 765 mmHg 76%
    06:00 +13°C° 0 mm 1 mps 765 mmHg 75%
    07:00 +13°C° 0 mm 1 mps 765 mmHg 74%
    08:00 +15°C° 0 mm 1 mps 765 mmHg 66%
    09:00 +18°C° 0 mm 1 mps 765 mmHg 58%
    10:00 +20°C° 0 mm 1 mps 765 mmHg 49%
    11:00 +20°C° 0 mm 1 mps 765 mmHg 46%
    12:00 +20°C° 0 mm 2 mps 765 mmHg 43%
    13:00 +21°C° 0 mm 3 mps 764 mmHg 40%
    14:00 +20°C° 0 mm 3 mps 764 mmHg 41%
    15:00 +20°C° 0 mm 3 mps 763 mmHg 41%
    16:00 +20°C° 0 mm 3 mps 763 mmHg 42%
    17:00 +18°C° 0 mm 3 mps 763 mmHg 46%
    18:00 +17°C° 0 mm 2 mps 763 mmHg 51%
    19:00 +15°C° 0 mm 2 mps 763 mmHg 55%
    20:00 +14°C° 0 mm 1 mps 763 mmHg 56%
    21:00 +14°C° 0 mm 1 mps 763 mmHg 57%
    22:00 +13°C° 0 mm 1 mps 764 mmHg 59%
    23:00 +13°C° 0 mm 1 mps 764 mmHg 60%
    Show more